Regional Weather Roundup
Issued by NWS Columbia, SC

Home | Current Version | Previous Version | Text Only | Print | Product List | Glossary On
Versions: 1 2 3 4 5 6 7 8 9 10 11 12 13 14 15 16 17 18 19 20 21 22 23 24 25 26 27 28 29 30 31 32 33 34 35 36 37 38 39 40 41 42 43 44 45 46 47 48 49 50
000
ASUS42 KCAE 221510
RWRCAE
REGIONAL WEATHER ROUNDUP
NATIONAL WEATHER SERVICE COLUMBIA SC
1000 AM EST WED NOV 22 2017

NOTE: "FAIR" INDICATES FEW OR NO CLOUDS BELOW 12,000 FEET WITH NO
SIGNIFICANT WEATHER AND/OR OBSTRUCTIONS TO VISIBILITY.

NOT ALL STATIONS ARE QUALITY CONTROLLED BY THE NATIONAL
WEATHER SERVICE. USE DATA WITH CAUTION...ESPECIALLY
DEWPOINT OBSERVATIONS.

SCZ001>056-GAZ040-063>065-077-221600-
...UPSTATE SOUTH CAROLINA...

CITY           SKY/WX    TMP DP  RH WIND       PRES   REMARKS
ANDERSON       SUNNY     57  48  72 NE7       30.06R
LIBERTY        SUNNY     56  49  78 NE3       30.04R
SPARTANBURG    SUNNY     59  34  38 N9        30.05R
CLEMSON        SUNNY     55  50  83 N3        30.06R
GREENVILLE     SUNNY     59  36  42 N14G21    30.06R
GREENWOOD      SUNNY     57  49  74 N5        30.07R
GREER          SUNNY     58  34  40 N10G21    30.06R
ROCK HILL      SUNNY     56  50  80 N8        30.05R
CHESTER        SUNNY     52  52 100 N3        30.06R
LAURENS        SUNNY     55  45  67 N5        30.05R


...CENTRAL SOUTH CAROLINA...

CITY           SKY/WX    TMP DP  RH WIND       PRES   REMARKS
COLUMBIA APT   MOSUNNY   61  56  83 NW5       30.05R
COLUMBIA OWENS PTSUNNY   57  54  89 CALM      30.06R
MCENTIRE ANGB  PTSUNNY   56  56 100 NW6       30.05R
ORANGEBURG     CLOUDY    56  54  93 N5        30.05R
SUMTER SHAW    PTSUNNY   58  55  90 W5        30.03R
NEWBERRY       SUNNY     54  50  87 CALM      30.09R
AIKEN          FAIR      54  54 100 NW7       30.09R
BARNWELL       FOG       55  55 100 CALM      30.06S VSB<1/4
MANNING        CLOUDY    55  54  94 MISG      30.05R FOG
CAMDEN         FAIR      59  52  77 CALM      30.05R
LANCASTER      FOG       52  52 100 SW3       30.05R VSB 1
WINNSBORO      MOSUNNY   54  54 100 CALM      30.04R


...EASTERN AND COASTAL SOUTH CAROLINA...

CITY           SKY/WX    TMP DP  RH WIND       PRES   REMARKS
MYRTLE BEACH   PTSUNNY   61  58  90 N8        30.02R
N MYRTLE BCH   CLOUDY    61  58  90 NW6       30.01R
CONWAY         PTSUNNY   59  57  94 CALM      30.03R FOG
MARION         PTSUNNY   59  54  82 NW8       30.03R
HARTSVILLE     FAIR      59  52  77 CALM      30.03R
FLORENCE       CLOUDY    58  55  90 NW5       30.04R FOG
DARLINGTON     MOSUNNY   59  54  83 NW6       30.04R
CHARLESTON APT PTSUNNY   61  58  90 NW7       30.04R
MOUNT PLEASANT PTSUNNY   63  57  82 NW6       30.04R
WALTERBORO     MOSUNNY   59  55  88 CALM      30.05S
BEAUFORT       CLOUDY    60  60 100 NW10      30.04R FOG


...EASTERN GEORGIA...

CITY           SKY/WX    TMP DP  RH WIND       PRES   REMARKS
AUGUSTA BUSH F CLOUDY    57  57 100 NW5       30.05S FOG
AUGUSTA DANIEL CLOUDY    57  55  93 NW3       30.06S FOG
THOMSON        MOSUNNY   55  53  94 CALM      30.11R
WASHINGTON     FAIR      55  50  82 CALM      30.06R
CLAXTON        CLOUDY    60  59  97 N3        30.05S
SYLVANIA       CLOUDY    58  58 100 N3        30.05F FOG
STATESBORO     CLOUDY    58  58 100 N3        30.05S FOG
SAVANNAH       CLOUDY    60  60 100 NW7       30.03F FOG


...SOUTHERN NORTH CAROLINA...

CITY           SKY/WX    TMP DP  RH WIND       PRES   REMARKS
CHARLOTTE      MOSUNNY   57  49  74 N8        30.05R
MONROE         SUNNY     58  50  75 N9        30.03R
WADESBORO      SUNNY     58  49  72 NW8       30.03R
RUTHERFORDTON  SUNNY     56  37  49 N8        30.06R
ASHEVILLE      SUNNY     49  33  54 N24G33    30.10R

$$



USA.gov is the U.S. government's official web portal to all federal, state and local government web resources and services.